Darstellungsparameter: Aktuell verwendete Einstellungen:
Skalierung der Graphiken ... ?
xyx+y,   Skalierungsfaktor:      Skalierung: Modus: x, Faktor: 1
Darstellungszeitraum ... ?
Vom - - bis: - -   Zeitraum: 24.04.2020 - 24.04.2020
Min/Max/Avg-Anzeige ... ?
Zeige MMA aktuell
Zeige MMA Monat
Zeige MMA alles
Zeige --A aktuell
Zeige --A Monat
Zeige --A alles
Keine MMA-Anzeige
MMA:
Average (ber die Originaldaten)
MMA-Basis: 24.04.2020 - 24.04.2020
Quicknavigation für Darstellung... ?
Tage:      1T, 2T, 3T, 5T -1T -2T -3T -5T +1T +2T +3T +5T
Wochen: 1W, 2W, 3W -1W -2W -3W +1W +2W +3W
Monate: 1M, 3M, 6M -1M -3M -6M +1M +3M +6M
Jahre:    1J, 3J, 5J, 10J -1J -3J -5J -10J +1J +3J +5J +10J
Nutze für die Darstellung ... ?
Originaldaten oder Mittelwerte auf ...
Stundenbasis Tagesbasis Wochenbasis
Monatsbasis Jahresbasis      Datenbasis: Original-Daten
Darstellen als:
Statistik (Auto) Statistik J:M      Darstellung:
Zur Graphik,    zurück zur Übersicht aller Sensoren.
 
Tabellarische Datenbersicht: ?
 
Sensor: Nr:Datum:Temp:Abs-Feuchte:Windchill:Wind:
Aussen-T/F 1 24-04-2020 00:00:00 9.6 C 6.6 g/m*3 9.6 C 0 km/h
2 24-04-2020 00:05:00 9.6 C 6.6 g/m*3 9.6 C 0 km/h
3 24-04-2020 00:10:00 9.6 C 6.69 g/m*3 9.6 C 0 km/h
4 24-04-2020 00:15:00 9.6 C 6.78 g/m*3 9.6 C 1.6 km/h
5 24-04-2020 00:20:00 9.6 C 6.69 g/m*3 9.6 C 0 km/h
6 24-04-2020 00:25:00 9.5 C 6.64 g/m*3 9.5 C 0 km/h
7 24-04-2020 00:30:00 9.4 C 6.69 g/m*3 9.4 C 0 km/h
8 24-04-2020 00:35:00 9.3 C 6.65 g/m*3 9.3 C 0 km/h
9 24-04-2020 00:40:00 9.1 C 6.57 g/m*3 9.1 C 1.6 km/h
10 24-04-2020 00:45:00 9 C 6.52 g/m*3 9 C 1.6 km/h
11 24-04-2020 00:50:00 8.9 C 6.57 g/m*3 8.9 C 0 km/h
12 24-04-2020 00:55:00 8.8 C 6.53 g/m*3 8.8 C 0 km/h
13 24-04-2020 01:00:00 8.8 C 6.61 g/m*3 8.8 C 0 km/h
14 24-04-2020 01:05:00 8.7 C 6.57 g/m*3 8.7 C 0 km/h
15 24-04-2020 01:10:00 8.7 C 6.66 g/m*3 8.7 C 1.6 km/h
16 24-04-2020 01:15:00 8.6 C 6.62 g/m*3 8.6 C 3.2 km/h
17 24-04-2020 01:20:00 8.6 C 6.62 g/m*3 8.6 C 0 km/h
18 24-04-2020 01:25:00 8.5 C 6.49 g/m*3 8.5 C 0 km/h
19 24-04-2020 01:30:00 8.4 C 6.45 g/m*3 8.4 C 0 km/h
20 24-04-2020 01:35:00 8.4 C 6.53 g/m*3 8.4 C 3.2 km/h
21 24-04-2020 01:40:00 8.4 C 6.62 g/m*3 8.4 C 0 km/h
22 24-04-2020 01:45:00 8.4 C 6.62 g/m*3 8.4 C 0 km/h
23 24-04-2020 01:50:00 8.3 C 6.57 g/m*3 8.3 C 0 km/h
24 24-04-2020 01:55:00 8.2 C 6.53 g/m*3 8.2 C 1.6 km/h
25 24-04-2020 02:00:00 8.2 C 6.53 g/m*3 8.2 C 0 km/h
Sensor: Nr:Datum:Temp:Abs-Feuchte:Windchill:Wind:
Aussen-T/F 26 24-04-2020 02:05:00 8.1 C 6.57 g/m*3 8.1 C 0 km/h
27 24-04-2020 02:10:00 7.9 C 6.41 g/m*3 7.9 C 0 km/h
28 24-04-2020 02:15:00 7.8 C 6.37 g/m*3 7.8 C 0 km/h
29 24-04-2020 02:20:00 7.7 C 6.41 g/m*3 7.7 C 0 km/h
30 24-04-2020 02:25:00 7.7 C 6.49 g/m*3 7.7 C 1.6 km/h
31 24-04-2020 02:30:00 7.7 C 6.49 g/m*3 7.7 C 1.6 km/h
32 24-04-2020 02:35:00 7.7 C 6.57 g/m*3 7.7 C 0 km/h
33 24-04-2020 02:40:00 7.6 C 6.44 g/m*3 7.6 C 0 km/h
34 24-04-2020 02:45:00 7.4 C 6.36 g/m*3 7.4 C 1.6 km/h
35 24-04-2020 02:50:00 7.4 C 6.44 g/m*3 7.4 C 0 km/h
36 24-04-2020 02:55:00 7.3 C 6.48 g/m*3 7.3 C 0 km/h
37 24-04-2020 03:00:00 7.3 C 6.48 g/m*3 7.3 C 1.6 km/h
38 24-04-2020 03:05:00 7.3 C 6.48 g/m*3 7.3 C 1.6 km/h
39 24-04-2020 03:10:00 7.3 C 6.48 g/m*3 7.3 C 0 km/h
40 24-04-2020 03:15:00 7.2 C 6.44 g/m*3 7.2 C 0 km/h
41 24-04-2020 03:20:00 7.1 C 6.4 g/m*3 7.1 C 0 km/h
42 24-04-2020 03:25:00 6.9 C 6.39 g/m*3 6.9 C 0 km/h
43 24-04-2020 03:30:00 6.9 C 6.39 g/m*3 6.9 C 0 km/h
44 24-04-2020 03:35:00 6.8 C 6.35 g/m*3 6.8 C 0 km/h
45 24-04-2020 03:40:00 6.8 C 6.42 g/m*3 6.8 C 0 km/h
46 24-04-2020 03:45:00 6.7 C 6.38 g/m*3 6.7 C 1.6 km/h
47 24-04-2020 03:50:00 6.7 C 6.38 g/m*3 6.7 C 0 km/h
48 24-04-2020 03:55:00 6.7 C 6.38 g/m*3 6.7 C 0 km/h
49 24-04-2020 04:00:00 6.7 C 6.38 g/m*3 6.7 C 0 km/h
50 24-04-2020 04:05:00 6.6 C 6.34 g/m*3 6.6 C 0 km/h
Sensor: Nr:Datum:Temp:Abs-Feuchte:Windchill:Wind:
Aussen-T/F 51 24-04-2020 04:10:00 6.5 C 6.37 g/m*3 6.5 C 0 km/h
52 24-04-2020 04:15:00 6.5 C 6.37 g/m*3 6.5 C 0 km/h
53 24-04-2020 04:20:00 6.4 C 6.33 g/m*3 6.4 C 0 km/h
54 24-04-2020 04:25:00 6.3 C 6.29 g/m*3 6.3 C 1.6 km/h
55 24-04-2020 04:30:00 6.3 C 6.29 g/m*3 6.3 C 0 km/h
56 24-04-2020 04:35:00 6.3 C 6.37 g/m*3 6.3 C 1.6 km/h
57 24-04-2020 04:40:00 6.5 C 6.45 g/m*3 6.5 C 1.6 km/h
58 24-04-2020 04:45:00 6.6 C 6.49 g/m*3 6.6 C 1.6 km/h
59 24-04-2020 04:50:00 6.7 C 6.53 g/m*3 6.7 C 0 km/h
60 24-04-2020 04:55:00 6.7 C 6.46 g/m*3 6.7 C 0 km/h
61 24-04-2020 05:00:00 6.7 C 6.46 g/m*3 6.7 C 1.6 km/h
62 24-04-2020 05:05:00 6.6 C 6.42 g/m*3 6.6 C 0 km/h
63 24-04-2020 05:10:00 6.5 C 6.37 g/m*3 6.5 C 1.6 km/h
64 24-04-2020 05:15:00 6.4 C 6.33 g/m*3 6.4 C 0 km/h
65 24-04-2020 05:20:00 6.3 C 6.37 g/m*3 6.3 C 0 km/h
66 24-04-2020 05:25:00 6.3 C 6.37 g/m*3 6.3 C 1.6 km/h
67 24-04-2020 05:30:00 6.3 C 6.44 g/m*3 6.3 C 0 km/h
68 24-04-2020 05:35:00 6.3 C 6.44 g/m*3 6.3 C 0 km/h
69 24-04-2020 05:40:00 6.4 C 6.48 g/m*3 6.4 C 0 km/h
70 24-04-2020 05:45:00 6.4 C 6.48 g/m*3 6.4 C 0 km/h
71 24-04-2020 05:50:00 6.4 C 6.48 g/m*3 6.4 C 0 km/h
72 24-04-2020 05:55:00 6.4 C 6.48 g/m*3 6.4 C 0 km/h
73 24-04-2020 06:00:00 6.4 C 6.48 g/m*3 6.4 C 0 km/h
74 24-04-2020 06:05:00 6.4 C 6.48 g/m*3 6.4 C 0 km/h
75 24-04-2020 06:10:00 6.3 C 6.44 g/m*3 6.3 C 3.2 km/h
Sensor: Nr:Datum:Temp:Abs-Feuchte:Windchill:Wind:
Aussen-T/F 76 24-04-2020 06:15:00 6.3 C 6.44 g/m*3 6.3 C 1.6 km/h
77 24-04-2020 06:20:00 6.3 C 6.44 g/m*3 6.3 C 1.6 km/h
78 24-04-2020 06:25:00 6.4 C 6.48 g/m*3 6.4 C 1.6 km/h
79 24-04-2020 06:30:00 6.4 C 6.48 g/m*3 6.4 C 0 km/h
80 24-04-2020 06:35:00 6.4 C 6.48 g/m*3 6.4 C 0 km/h
81 24-04-2020 06:40:00 6.3 C 6.44 g/m*3 6.3 C 0 km/h
82 24-04-2020 06:45:00 6.4 C 6.48 g/m*3 6.4 C 0 km/h
83 24-04-2020 06:50:00 6.4 C 6.48 g/m*3 6.4 C 0 km/h
84 24-04-2020 06:55:00 6.4 C 6.48 g/m*3 6.4 C 0 km/h
85 24-04-2020 07:00:00 6.4 C 6.48 g/m*3 6.4 C 0 km/h
86 24-04-2020 07:05:00 6.4 C 6.48 g/m*3 6.4 C 0 km/h
87 24-04-2020 07:10:00 6.5 C 6.6 g/m*3 6.5 C 0 km/h
88 24-04-2020 07:15:00 6.5 C 6.6 g/m*3 6.5 C 0 km/h
89 24-04-2020 07:20:00 6.6 C 6.64 g/m*3 6.6 C 0 km/h
90 24-04-2020 07:25:00 6.6 C 6.64 g/m*3 6.6 C 0 km/h
91 24-04-2020 07:30:00 6.6 C 6.64 g/m*3 6.6 C 0 km/h
92 24-04-2020 07:35:00 6.6 C 6.64 g/m*3 6.6 C 1.6 km/h
93 24-04-2020 07:40:00 6.6 C 6.64 g/m*3 6.6 C 0 km/h
94 24-04-2020 07:45:00 6.7 C 6.69 g/m*3 6.7 C 0 km/h
95 24-04-2020 07:50:00 6.8 C 6.73 g/m*3 6.8 C 0 km/h
96 24-04-2020 07:55:00 6.8 C 6.73 g/m*3 6.8 C 0 km/h
97 24-04-2020 08:00:00 6.9 C 6.77 g/m*3 6.9 C 0 km/h
98 24-04-2020 08:05:00 6.9 C 6.77 g/m*3 6.9 C 0 km/h
99 24-04-2020 08:10:00 7.1 C 6.86 g/m*3 7.1 C 0 km/h
100 24-04-2020 08:15:00 7.2 C 6.91 g/m*3 7.2 C 0 km/h
Sensor: Nr:Datum:Temp:Abs-Feuchte:Windchill:Wind:
Aussen-T/F 101 24-04-2020 08:20:00 7.3 C 6.87 g/m*3 7.3 C 1.6 km/h
102 24-04-2020 08:25:00 7.6 C 7.01 g/m*3 7.6 C 1.6 km/h
103 24-04-2020 08:30:00 7.8 C 7.02 g/m*3 7.8 C 0 km/h
104 24-04-2020 08:35:00 8.1 C 7.07 g/m*3 8.1 C 0 km/h
105 24-04-2020 08:40:00 8.3 C 7.16 g/m*3 8.3 C 0 km/h
106 24-04-2020 08:45:00 8.7 C 7.35 g/m*3 8.7 C 1.6 km/h
107 24-04-2020 08:50:00 8.9 C 7.27 g/m*3 8.9 C 0 km/h
108 24-04-2020 08:55:00 9.2 C 7.41 g/m*3 9.2 C 0 km/h
109 24-04-2020 09:00:00 9.4 C 7.42 g/m*3 9.4 C 0 km/h
110 24-04-2020 09:05:00 9.6 C 7.33 g/m*3 9.6 C 0 km/h
111 24-04-2020 09:10:00 9.9 C 7.38 g/m*3 9.9 C 1.6 km/h
112 24-04-2020 09:15:00 10.1 C 7.38 g/m*3 10.1 C 0 km/h
113 24-04-2020 09:20:00 10.3 C 7.57 g/m*3 10.3 C 0 km/h
114 24-04-2020 09:25:00 10.6 C 7.61 g/m*3 10.6 C 0 km/h
115 24-04-2020 09:30:00 10.8 C 7.61 g/m*3 10.8 C 0 km/h
116 24-04-2020 09:35:00 11.1 C 7.76 g/m*3 11.1 C 0 km/h
117 24-04-2020 09:40:00 11.3 C 7.75 g/m*3 11.3 C 1.6 km/h
118 24-04-2020 09:45:00 11.4 C 7.7 g/m*3 11.4 C 0 km/h
119 24-04-2020 09:50:00 11.7 C 7.84 g/m*3 11.7 C 0 km/h
120 24-04-2020 09:55:00 11.8 C 7.89 g/m*3 11.8 C 0 km/h
121 24-04-2020 10:00:00 12.1 C 7.94 g/m*3 12.1 C 1.6 km/h
122 24-04-2020 10:05:00 12.2 C 7.88 g/m*3 12.2 C 1.6 km/h
123 24-04-2020 10:10:00 12.3 C 7.93 g/m*3 12.3 C 1.6 km/h
124 24-04-2020 10:15:00 12.3 C 7.82 g/m*3 12.3 C 0 km/h
125 24-04-2020 10:20:00 12.5 C 7.92 g/m*3 12.5 C 0 km/h
Sensor: Nr:Datum:Temp:Abs-Feuchte:Windchill:Wind:
Aussen-T/F 126 24-04-2020 10:25:00 12.7 C 8.01 g/m*3 12.7 C 0 km/h
127 24-04-2020 10:30:00 12.9 C 8.11 g/m*3 12.9 C 1.6 km/h
128 24-04-2020 10:35:00 13.2 C 8.15 g/m*3 13.2 C 4.8 km/h
129 24-04-2020 10:40:00 13.6 C 8.36 g/m*3 13.6 C 4.8 km/h
130 24-04-2020 10:45:00 13.8 C 8.22 g/m*3 13.8 C 4.8 km/h
131 24-04-2020 10:50:00 13.9 C 8.39 g/m*3 13.9 C 1.6 km/h
132 24-04-2020 10:55:00 14.2 C 8.3 g/m*3 14.2 C 3.2 km/h
133 24-04-2020 11:00:00 14.3 C 8.23 g/m*3 14.3 C 1.6 km/h
134 24-04-2020 11:05:00 14.6 C 8.38 g/m*3 14.6 C 0 km/h
135 24-04-2020 11:10:00 14.7 C 8.31 g/m*3 14.7 C 3.2 km/h
136 24-04-2020 11:15:00 14.8 C 8.49 g/m*3 14.8 C 1.6 km/h
137 24-04-2020 11:20:00 15 C 8.33 g/m*3 15 C 3.2 km/h
138 24-04-2020 11:25:00 15.2 C 8.44 g/m*3 15.2 C 1.6 km/h
139 24-04-2020 11:30:00 15.3 C 8.36 g/m*3 15.3 C 3.2 km/h
140 24-04-2020 11:35:00 15.4 C 8.28 g/m*3 15.4 C 0 km/h
141 24-04-2020 11:40:00 15.6 C 8.51 g/m*3 15.6 C 1.6 km/h
142 24-04-2020 11:45:00 15.7 C 8.43 g/m*3 15.7 C 1.6 km/h
143 24-04-2020 11:50:00 15.9 C 8.4 g/m*3 15.9 C 0 km/h
144 24-04-2020 11:55:00 16.1 C 8.5 g/m*3 16.1 C 0 km/h
145 24-04-2020 12:00:00 16.2 C 8.55 g/m*3 16.2 C 4.8 km/h
146 24-04-2020 12:05:00 16.4 C 8.79 g/m*3 16.4 C 1.6 km/h
147 24-04-2020 12:10:00 16.6 C 8.76 g/m*3 16.6 C 1.6 km/h
148 24-04-2020 12:15:00 16.9 C 8.63 g/m*3 16.9 C 1.6 km/h
149 24-04-2020 12:20:00 17.3 C 9.28 g/m*3 17.3 C 0 km/h
150 24-04-2020 12:25:00 17.7 C 8.75 g/m*3 17.7 C 6.4 km/h
Sensor: Nr:Datum:Temp:Abs-Feuchte:Windchill:Wind:
Aussen-T/F 151 24-04-2020 12:30:00 17.9 C 8.4 g/m*3 17.9 C 3.2 km/h
152 24-04-2020 12:35:00 18.1 C 8.65 g/m*3 18.1 C 9.7 km/h
153 24-04-2020 12:40:00 18.2 C 8.55 g/m*3 18.2 C 9.7 km/h
154 24-04-2020 12:45:00 18.3 C 7.97 g/m*3 18.3 C 8.1 km/h
155 24-04-2020 12:50:00 18.6 C 8.28 g/m*3 18.6 C 6.4 km/h
156 24-04-2020 12:55:00 18.8 C 7.89 g/m*3 18.8 C 8.1 km/h
157 24-04-2020 13:00:00 19.2 C 7.75 g/m*3 19.2 C 8.1 km/h
158 24-04-2020 13:05:00 19.3 C 7.96 g/m*3 19.3 C 8.1 km/h
159 24-04-2020 13:10:00 19.4 C 7.67 g/m*3 19.4 C 6.4 km/h
160 24-04-2020 13:15:00 19.7 C 7.47 g/m*3 19.7 C 9.7 km/h
161 24-04-2020 13:20:00 20 C 7.26 g/m*3 20 C 14.5 km/h
162 24-04-2020 13:25:00 20.1 C 6.78 g/m*3 20.1 C 9.7 km/h
163 24-04-2020 13:30:00 20.2 C 6.64 g/m*3 20.2 C 9.7 km/h
164 24-04-2020 13:35:00 20.2 C 6.99 g/m*3 20.2 C 9.7 km/h
165 24-04-2020 13:40:00 20.3 C 6.86 g/m*3 20.3 C 9.7 km/h
166 24-04-2020 13:45:00 20.5 C 6.76 g/m*3 20.5 C 11.3 km/h
167 24-04-2020 13:50:00 20.7 C 6.84 g/m*3 20.7 C 12.9 km/h
168 24-04-2020 13:55:00 20.7 C 7.02 g/m*3 20.7 C 8.1 km/h
169 24-04-2020 14:00:00 20.8 C 7.24 g/m*3 20.8 C 12.9 km/h
170 24-04-2020 14:05:00 21.1 C 7.55 g/m*3 21.1 C 8.1 km/h
171 24-04-2020 14:10:00 21.1 C 7.37 g/m*3 21.1 C 9.7 km/h
172 24-04-2020 14:15:00 21.1 C 7.37 g/m*3 21.1 C 8.1 km/h
173 24-04-2020 14:20:00 21.2 C 7.6 g/m*3 21.2 C 11.3 km/h
174 24-04-2020 14:25:00 21.4 C 7.69 g/m*3 21.4 C 9.7 km/h
175 24-04-2020 14:30:00 21.4 C 7.69 g/m*3 21.4 C 8.1 km/h
Sensor: Nr:Datum:Temp:Abs-Feuchte:Windchill:Wind:
Aussen-T/F 176 24-04-2020 14:35:00 21.4 C 7.87 g/m*3 21.4 C 8.1 km/h
177 24-04-2020 14:40:00 21.5 C 7.92 g/m*3 21.5 C 14.5 km/h
178 24-04-2020 14:45:00 21.6 C 7.97 g/m*3 21.6 C 9.7 km/h
179 24-04-2020 14:50:00 21.6 C 7.97 g/m*3 21.6 C 8.1 km/h
180 24-04-2020 14:55:00 21.7 C 7.82 g/m*3 21.7 C 14.5 km/h
181 24-04-2020 15:00:00 21.7 C 8.01 g/m*3 21.7 C 14.5 km/h
182 24-04-2020 15:05:00 21.8 C 7.67 g/m*3 21.8 C 11.3 km/h
183 24-04-2020 15:10:00 21.9 C 7.91 g/m*3 21.9 C 8.1 km/h
184 24-04-2020 15:15:00 21.9 C 7.53 g/m*3 21.9 C 8.1 km/h
185 24-04-2020 15:20:00 22 C 7.57 g/m*3 22 C 8.1 km/h
186 24-04-2020 15:25:00 21.9 C 7.33 g/m*3 21.9 C 14.5 km/h
187 24-04-2020 15:30:00 22 C 7.18 g/m*3 22 C 12.9 km/h
188 24-04-2020 15:35:00 22.1 C 7.03 g/m*3 22.1 C 11.3 km/h
189 24-04-2020 15:40:00 22.2 C 7.07 g/m*3 22.2 C 9.7 km/h
190 24-04-2020 15:45:00 22.3 C 7.11 g/m*3 22.3 C 9.7 km/h
191 24-04-2020 15:50:00 22.4 C 6.95 g/m*3 22.4 C 11.3 km/h
192 24-04-2020 15:55:00 22.6 C 6.83 g/m*3 22.6 C 12.9 km/h
193 24-04-2020 16:00:00 22.6 C 6.83 g/m*3 22.6 C 12.9 km/h
194 24-04-2020 16:05:00 22.5 C 6.99 g/m*3 22.5 C 8.1 km/h
195 24-04-2020 16:10:00 22.6 C 6.83 g/m*3 22.6 C 12.9 km/h
196 24-04-2020 16:15:00 22.7 C 6.67 g/m*3 22.7 C 14.5 km/h
197 24-04-2020 16:20:00 22.8 C 6.71 g/m*3 22.8 C 11.3 km/h
198 24-04-2020 16:25:00 22.8 C 6.3 g/m*3 22.8 C 12.9 km/h
199 24-04-2020 16:30:00 22.9 C 6.13 g/m*3 22.9 C 11.3 km/h
200 24-04-2020 16:35:00 23.1 C 6.61 g/m*3 23.1 C 4.8 km/h
Sensor: Nr:Datum:Temp:Abs-Feuchte:Windchill:Wind:
Aussen-T/F 201 24-04-2020 16:40:00 23.2 C 6.24 g/m*3 23.2 C 16.1 km/h
202 24-04-2020 16:45:00 23.1 C 5.99 g/m*3 23.1 C 12.9 km/h
203 24-04-2020 16:50:00 22.9 C 6.34 g/m*3 22.9 C 9.7 km/h
204 24-04-2020 16:55:00 22.9 C 6.13 g/m*3 22.9 C 12.9 km/h
205 24-04-2020 17:00:00 22.8 C 6.3 g/m*3 22.8 C 14.5 km/h
206 24-04-2020 17:05:00 22.6 C 6.23 g/m*3 22.6 C 11.3 km/h
207 24-04-2020 17:10:00 22.6 C 6.43 g/m*3 22.6 C 14.5 km/h
208 24-04-2020 17:15:00 22.6 C 6.03 g/m*3 22.6 C 16.1 km/h
209 24-04-2020 17:20:00 22.6 C 5.83 g/m*3 22.6 C 16.1 km/h
210 24-04-2020 17:25:00 22.7 C 5.86 g/m*3 22.7 C 12.9 km/h
211 24-04-2020 17:30:00 22.8 C 5.89 g/m*3 22.8 C 14.5 km/h
212 24-04-2020 17:35:00 22.7 C 5.66 g/m*3 22.7 C 14.5 km/h
213 24-04-2020 17:40:00 22.4 C 5.76 g/m*3 22.4 C 12.9 km/h
214 24-04-2020 17:45:00 22.2 C 5.89 g/m*3 22.2 C 14.5 km/h
215 24-04-2020 17:50:00 22.2 C 5.89 g/m*3 22.2 C 14.5 km/h
216 24-04-2020 17:55:00 22.4 C 5.96 g/m*3 22.4 C 16.1 km/h
217 24-04-2020 18:00:00 22.4 C 6.16 g/m*3 22.4 C 9.7 km/h
218 24-04-2020 18:05:00 22.1 C 6.05 g/m*3 22.1 C 19.3 km/h
219 24-04-2020 18:10:00 21.9 C 5.98 g/m*3 21.9 C 14.5 km/h
220 24-04-2020 18:15:00 21.7 C 6.29 g/m*3 21.7 C 14.5 km/h
221 24-04-2020 18:20:00 21.4 C 6.37 g/m*3 21.4 C 14.5 km/h
222 24-04-2020 18:25:00 21.4 C 6.56 g/m*3 21.4 C 16.1 km/h
223 24-04-2020 18:30:00 21.6 C 7.02 g/m*3 21.6 C 14.5 km/h
224 24-04-2020 18:35:00 21.6 C 7.02 g/m*3 21.6 C 11.3 km/h
225 24-04-2020 18:40:00 21.4 C 7.12 g/m*3 21.4 C 14.5 km/h
Sensor: Nr:Datum:Temp:Abs-Feuchte:Windchill:Wind:
Aussen-T/F 226 24-04-2020 18:45:00 21.3 C 7.08 g/m*3 21.3 C 16.1 km/h
227 24-04-2020 18:50:00 21.2 C 7.23 g/m*3 21.2 C 12.9 km/h
228 24-04-2020 18:55:00 21.1 C 7.19 g/m*3 21.1 C 12.9 km/h
229 24-04-2020 19:00:00 21.1 C 7.19 g/m*3 21.1 C 16.1 km/h
230 24-04-2020 19:05:00 20.9 C 7.1 g/m*3 20.9 C 17.7 km/h
231 24-04-2020 19:10:00 20.8 C 7.06 g/m*3 20.8 C 12.9 km/h
232 24-04-2020 19:15:00 20.7 C 7.2 g/m*3 20.7 C 12.9 km/h
233 24-04-2020 19:20:00 20.5 C 7.12 g/m*3 20.5 C 17.7 km/h
234 24-04-2020 19:25:00 20.4 C 7.25 g/m*3 20.4 C 8.1 km/h
235 24-04-2020 19:30:00 20.3 C 7.21 g/m*3 20.3 C 11.3 km/h
236 24-04-2020 19:35:00 20.1 C 7.3 g/m*3 20.1 C 12.9 km/h
237 24-04-2020 19:40:00 19.9 C 7.39 g/m*3 19.9 C 8.1 km/h
238 24-04-2020 19:45:00 19.8 C 7.34 g/m*3 19.8 C 12.9 km/h
239 24-04-2020 19:50:00 19.7 C 7.3 g/m*3 19.7 C 11.3 km/h
240 24-04-2020 19:55:00 19.6 C 7.43 g/m*3 19.6 C 12.9 km/h
241 24-04-2020 20:00:00 19.4 C 7.51 g/m*3 19.4 C 9.7 km/h
242 24-04-2020 20:05:00 19.2 C 7.42 g/m*3 19.2 C 9.7 km/h
243 24-04-2020 20:10:00 19.1 C 7.21 g/m*3 19.1 C 9.7 km/h
244 24-04-2020 20:15:00 18.9 C 7.45 g/m*3 18.9 C 8.1 km/h
245 24-04-2020 20:20:00 18.7 C 7.52 g/m*3 18.7 C 0 km/h
246 24-04-2020 20:25:00 18.3 C 7.35 g/m*3 18.3 C 9.7 km/h
247 24-04-2020 20:30:00 18.2 C 7.46 g/m*3 18.2 C 3.2 km/h
248 24-04-2020 20:35:00 17.8 C 7.59 g/m*3 17.8 C 1.6 km/h
249 24-04-2020 20:40:00 17.5 C 7.45 g/m*3 17.5 C 4.8 km/h
250 24-04-2020 20:45:00 17.2 C 7.32 g/m*3 17.2 C 6.4 km/h
Sensor: Nr:Datum:Temp:Abs-Feuchte:Windchill:Wind:
Aussen-T/F 251 24-04-2020 20:50:00 16.9 C 7.34 g/m*3 16.9 C 1.6 km/h
252 24-04-2020 20:55:00 16.7 C 7.39 g/m*3 16.7 C 1.6 km/h
253 24-04-2020 21:00:00 16.4 C 7.26 g/m*3 16.4 C 6.4 km/h
254 24-04-2020 21:05:00 16.3 C 7.35 g/m*3 16.3 C 1.6 km/h
255 24-04-2020 21:10:00 16.2 C 7.31 g/m*3 16.2 C 6.4 km/h
256 24-04-2020 21:15:00 16 C 7.08 g/m*3 16 C 1.6 km/h
257 24-04-2020 21:20:00 15.8 C 7.13 g/m*3 15.8 C 3.2 km/h
258 24-04-2020 21:25:00 15.7 C 7.23 g/m*3 15.7 C 3.2 km/h
259 24-04-2020 21:30:00 15.6 C 7.05 g/m*3 15.6 C 4.8 km/h
260 24-04-2020 21:35:00 15.6 C 7.18 g/m*3 15.6 C 6.4 km/h
261 24-04-2020 21:40:00 15.7 C 7.23 g/m*3 15.7 C 3.2 km/h
262 24-04-2020 21:45:00 15.6 C 7.05 g/m*3 15.6 C 0 km/h
263 24-04-2020 21:50:00 15.5 C 7.27 g/m*3 15.5 C 0 km/h
264 24-04-2020 21:55:00 15.3 C 7.18 g/m*3 15.3 C 1.6 km/h
265 24-04-2020 22:00:00 15.2 C 7.14 g/m*3 15.2 C 3.2 km/h
266 24-04-2020 22:05:00 15.1 C 7.1 g/m*3 15.1 C 3.2 km/h
267 24-04-2020 22:10:00 15 C 7.18 g/m*3 15 C 8.1 km/h
268 24-04-2020 22:15:00 14.8 C 7.09 g/m*3 14.8 C 1.6 km/h
269 24-04-2020 22:20:00 14.7 C 7.18 g/m*3 14.7 C 4.8 km/h
270 24-04-2020 22:25:00 14.6 C 6.76 g/m*3 14.6 C 6.4 km/h
271 24-04-2020 22:30:00 14.6 C 7.01 g/m*3 14.6 C 1.6 km/h
272 24-04-2020 22:35:00 14.6 C 6.88 g/m*3 14.6 C 0 km/h
273 24-04-2020 22:40:00 14.6 C 7.01 g/m*3 14.6 C 0 km/h
274 24-04-2020 22:45:00 14.4 C 6.92 g/m*3 14.4 C 3.2 km/h
275 24-04-2020 22:50:00 14.2 C 6.84 g/m*3 14.2 C 3.2 km/h
Sensor: Nr:Datum:Temp:Abs-Feuchte:Windchill:Wind:
Aussen-T/F 276 24-04-2020 22:55:00 13.9 C 6.83 g/m*3 13.9 C 3.2 km/h
277 24-04-2020 23:00:00 13.7 C 6.63 g/m*3 13.7 C 3.2 km/h
278 24-04-2020 23:05:00 13.5 C 6.67 g/m*3 13.5 C 1.6 km/h
279 24-04-2020 23:10:00 13.3 C 6.12 g/m*3 13.3 C 4.8 km/h
280 24-04-2020 23:15:00 13.3 C 6.47 g/m*3 13.3 C 3.2 km/h
281 24-04-2020 23:20:00 13.2 C 5.97 g/m*3 13.2 C 0 km/h
282 24-04-2020 23:25:00 13.1 C 6.05 g/m*3 13.1 C 0 km/h
283 24-04-2020 23:30:00 12.9 C 5.86 g/m*3 12.9 C 1.6 km/h
284 24-04-2020 23:35:00 12.8 C 5.6 g/m*3 12.8 C 8.1 km/h
285 24-04-2020 23:40:00 12.9 C 5.75 g/m*3 12.9 C 3.2 km/h
286 24-04-2020 23:45:00 12.9 C 5.75 g/m*3 12.9 C 3.2 km/h
287 24-04-2020 23:50:00 12.9 C 5.97 g/m*3 12.9 C 0 km/h
288 24-04-2020 23:55:00 12.8 C 5.6 g/m*3 12.8 C 3.2 km/h

Legende:
   Min
   Max


Maximal/Minimal-Werte vom 24.04.2020 - 24.04.2020

Sensor Min Max Avg
Temp
(Aussen-T/F)
6.3 °C
24-04-2020  04:25:00
23.2 °C
24-04-2020  16:40:00
13.96 °C
Abs-Feuchte
(Aussen-T/F)
5.6 g/m*3
24-04-2020  23:35:00
9.28 g/m*3
24-04-2020  12:20:00
6.97 g/m*3
Windchill
(Aussen-T/F)
6.3 C
24-04-2020  04:25:00
23.2 C
24-04-2020  16:40:00
13.91 C

Die Daten stammen von einer Davis Vantage Pro 2 Wetter-Station und werden unter Linux mit der Software wview2wettercgi und aufbereitet. Alle Angaben erfolgen ohne Gewähr für ihre Vollständigkeit oder Richtigkeit.
Kontakt: Rainer Krienke krienke@uni-koblenz.de . Meine Webseiten an der Uni Koblenz oder privat.
Version: $Revision: 0.78 $